Location: Cardiff
(53.7833°N, 113.6000°W)
Time: 05:58:49
(UTC+00:00)

SO-50 - Pass Details

Date: 12 December 2023
Orbit: 608 x 660 km, 64.6° (Epoch: 02 March)

Event Time Altitude Azimuth Distance (km) Brightness Sun altitude
Exits shadow 14:00:13 15° 328° (NNW) 1,724 ? -13.9°
Maximum altitude 14:02:45 23° 10° (N) 1,371 ? -13.6°
Drops below altitude 10° 14:06:22 10° 62° (ENE) 2,012 ? -13.1°
Sets 14:09:03 0° 78° (ENE) 2,908 ? -12.7°
